DH2PG-6 Weather Reports


time (UTC)temp
C
wind
direction
speed
KPH
gust
KPH
rain 1hr
cm
rain 24hr
cm
rain mn
cm
humidity
%
barometer
mb
20260502214154 15 180 0.0 0.0 0.00 0.00 0.00 55 1012.3
20260502213654 15 157 0.0 0.0 0.00 0.00 0.00 55 1012.3
20260502212153 15 180 0.0 0.0 0.00 0.00 0.00 55 1012.3
20260502211153 15 180 0.0 0.0 0.00 0.00 0.00 55 1012.3
20260502210652 15 180 0.0 0.0 0.00 0.00 0.00 55 1012.3
20260502210152 15 202 0.0 0.0 0.00 0.00 0.00 55 1012.3
20260502205652 15 180 0.0 0.0 0.00 0.00 0.00 55 1012.3
20260502205151 15 180 0.0 0.0 0.00 0.00 0.00 55 1012.4
20260502204651 15 180 0.0 0.0 0.00 0.00 0.00 55 1012.4
20260502204151 15 180 0.0 0.0 0.00 0.00 0.00 56 1012.4
20260502203650 15 180 0.0 0.0 0.00 0.00 0.00 56 1012.4
20260502203150 15 157 0.0 0.0 0.00 0.00 0.00 56 1012.5
20260502202650 16 157 0.0 0.0 0.00 0.00 0.00 56 1012.5
20260502202150 16 180 0.0 0.0 0.00 0.00 0.00 56 1012.4
20260502201649 16 180 0.0 0.0 0.00 0.00 0.00 56 1012.5
20260502201149 16 180 0.0 0.0 0.00 0.00 0.00 56 1012.5
20260502200649 16 157 0.0 0.0 0.00 0.00 0.00 56 1012.6
20260502200149 16 157 0.0 0.0 0.00 0.00 0.00 55 1012.5
20260502194648 16 157 0.0 0.0 0.00 0.00 0.00 55 1012.5
20260502194147 16 180 0.0 0.0 0.00 0.00 0.00 54 1012.6
20260502193647 16 180 0.0 0.0 0.00 0.00 0.00 54 1012.5
20260502193147 16 180 0.0 0.0 0.00 0.00 0.00 54 1012.5
20260502192647 16 180 0.0 0.0 0.00 0.00 0.00 54 1012.4
20260502192146 17 180 0.0 0.0 0.00 0.00 0.00 54 1012.5
20260502191646 17 180 0.0 0.0 0.00 0.00 0.00 54 1012.5
20260502191146 17 157 0.0 0.0 0.00 0.00 0.00 54 1012.5
20260502190645 17 157 0.0 0.0 0.00 0.00 0.00 53 1012.4
20260502190145 17 157 0.0 0.0 0.00 0.00 0.00 53 1012.3
20260502185645 17 180 0.0 0.0 0.00 0.00 0.00 52 1012.3
20260502185145 17 180 0.0 0.0 0.00 0.00 0.00 52 1012.3
20260502184644 18 180 0.0 0.0 0.00 0.00 0.00 52 1012.3
20260502184144 18 180 0.0 0.0 0.00 0.00 0.00 51 1012.3
20260502183644 18 180 0.0 0.0 0.00 0.00 0.00 51 1012.3
20260502183143 18 180 0.0 0.0 0.00 0.00 0.00 51 1012.3
20260502182143 18 157 0.0 0.0 0.00 0.00 0.00 51 1012.3
20260502181643 19 180 0.0 0.0 0.00 0.00 0.00 50 1012.3
20260502181142 19 180 0.0 0.0 0.00 0.00 0.00 50 1012.4
20260502180642 19 180 0.0 0.0 0.00 0.00 0.00 50 1012.3
20260502180142 20 157 0.0 0.0 0.00 0.00 0.00 50 1012.3
20260502170138 21 180 0.0 0.0 0.00 0.00 0.00 49 1012.5
20260502164137 21 157 0.0 0.0 0.00 0.00 0.00 51 1012.6
20260502163137 21 157 0.0 0.0 0.00 0.00 0.00 52 1012.7
20260502162636 21 157 0.0 0.0 0.00 0.00 0.00 51 1012.7
20260502162136 21 157 0.0 0.0 0.00 0.00 0.00 51 1013.0
20260502161636 21 157 0.0 0.0 0.00 0.00 0.00 51 1012.9
20260502161136 22 157 0.0 0.0 0.00 0.00 0.00 50 1013.2
20260502160635 22 157 0.0 0.0 0.00 0.00 0.00 50 1013.1
20260502160135 22 180 0.0 0.0 0.00 0.00 0.00 49 1013.1
20260502152133 25 157 0.0 0.0 0.00 0.00 0.00 46 1013.3
20260502151632 25 157 0.0 0.0 0.00 0.00 0.00 45 1013.3
20260502151132 26 135 0.0 0.0 0.00 0.00 0.00 45 1013.4
20260502150632 26 135 0.0 0.0 0.00 0.00 0.00 46 1013.4
20260502150132 26 157 0.0 0.0 0.00 0.00 0.00 46 1013.6
20260502140128 25 157 0.0 0.0 0.00 0.00 0.00 49 1014.4
20260502130625 25 157 0.0 0.0 0.00 0.00 0.00 46 1015.0
20260502130125 25 180 0.0 0.0 0.00 0.00 0.00 47 1015.1
20260502123623 24 157 0.0 0.0 0.00 0.00 0.00 47 1015.5
20260502123123 24 157 0.0 0.0 0.00 0.00 0.00 46 1015.4
20260502122623 24 180 0.0 0.0 0.00 0.00 0.00 47 1015.6
20260502122123 23 135 0.0 0.0 0.00 0.00 0.00 47 1015.5
20260502121622 23 135 0.0 0.0 0.00 0.00 0.00 47 1015.7
20260502121122 23 135 0.0 0.0 0.00 0.00 0.00 48 1015.7
20260502120121 23 157 0.0 0.0 0.00 0.00 0.00 49 1015.9
20260502115621 23 135 0.0 0.0 0.00 0.00 0.00 48 1016.0
20260502115121 23 157 0.0 0.0 0.00 0.00 0.00 49 1016.0
20260502114621 23 157 0.0 0.0 0.00 0.00 0.00 48 1016.0
20260502114120 23 157 0.0 0.0 0.00 0.00 0.00 50 1016.1
20260502113620 23 135 0.0 0.0 0.00 0.00 0.00 50 1016.1
20260502113120 23 135 0.0 0.0 0.00 0.00 0.00 51 1016.3
20260502112619 22 157 0.0 0.0 0.00 0.00 0.00 50 1016.2
20260502112119 22 157 0.0 0.0 0.00 0.00 0.00 50 1016.4
20260502111619 22 157 0.0 0.0 0.00 0.00 0.00 50 1016.4
20260502111119 22 135 0.0 0.0 0.00 0.00 0.00 50 1016.3
20260502110118 22 157 0.0 0.0 0.00 0.00 0.00 50 1016.5
20260502105618 22 157 0.0 0.0 0.00 0.00 0.00 51 1016.6
20260502105117 22 157 0.0 0.0 0.00 0.00 0.00 50 1016.5
20260502104617 22 135 0.0 0.0 0.00 0.00 0.00 49 1016.6
20260502104117 22 135 0.0 0.0 0.00 0.00 0.00 50 1016.6
20260502103617 22 157 0.0 0.0 0.00 0.00 0.00 50 1016.8
20260502103116 21 157 0.0 0.0 0.00 0.00 0.00 51 1016.8
20260502102116 21 157 0.0 0.0 0.00 0.00 0.00 52 1016.7
20260502101615 21 135 0.0 0.0 0.00 0.00 0.00 53 1016.8
20260502101115 21 157 0.0 0.0 0.00 0.00 0.00 53 1016.7
20260502100615 21 135 0.0 0.0 0.00 0.00 0.00 54 1016.7
20260502100115 20 135 0.0 0.0 0.00 0.00 0.00 54 1016.8
20260502090611 18 135 0.0 0.0 0.00 0.00 0.00 54 1017.1
20260502090111 18 157 0.0 0.0 0.00 0.00 0.00 55 1017.1
20260502080108 16 157 0.0 0.0 0.00 0.00 0.00 52 1017.3
20260502071105 16 157 0.0 0.0 0.00 0.00 0.00 49 1017.4
20260502070605 16 157 0.0 0.0 0.00 0.00 0.00 50 1017.4
20260502070104 16 157 0.0 0.0 0.00 0.00 0.00 50 1017.5
20260502065604 16 157 0.0 0.0 0.00 0.00 0.00 50 1017.5
20260502065104 16 157 0.0 0.0 0.00 0.00 0.00 50 1017.5
20260502064103 16 157 0.0 0.0 0.00 0.00 0.00 50 1017.6
20260502063603 16 135 0.0 0.0 0.00 0.00 0.00 50 1017.5
20260502062603 15 180 0.0 0.0 0.00 0.00 0.00 51 1017.7
20260502062102 15 157 0.0 0.0 0.00 0.00 0.00 51 1017.8
20260502061602 14 157 0.0 0.0 0.00 0.00 0.00 52 1017.9
20260502061102 14 157 0.0 0.0 0.00 0.00 0.00 52 1017.8
20260502060601 13 180 0.0 0.0 0.00 0.00 0.00 52 1018.0
20260502055601 13 157 0.0 0.0 0.00 0.00 0.00 52 1018.1
20260502055101 13 202 0.0 0.0 0.00 0.00 0.00 52 1018.3
20260502054600 13 225 0.0 0.0 0.00 0.00 0.00 53 1018.3
20260502054100 13 157 0.0 0.0 0.00 0.00 0.00 53 1018.0
20260502053059 13 157 0.0 0.0 0.00 0.00 0.00 53 1017.8
20260502052559 13 157 0.0 0.0 0.00 0.00 0.00 53 1017.9
20260502052059 12 157 0.0 0.0 0.00 0.00 0.00 53 1017.8
20260502051559 12 135 0.0 0.0 0.00 0.00 0.00 53 1017.8
20260502051058 12 157 0.0 0.0 0.00 0.00 0.00 54 1017.7
20260502050558 12 157 0.0 0.0 0.00 0.00 0.00 54 1017.8
20260502050058 12 157 0.0 0.0 0.00 0.00 0.00 53 1017.8
20260502045557 11 135 0.0 0.0 0.00 0.00 0.00 53 1017.7
20260502045057 11 157 0.0 0.0 0.00 0.00 0.00 53 1017.7
20260502044557 11 157 0.0 0.0 0.00 0.00 0.00 53 1017.6
20260502044057 11 157 0.0 0.0 0.00 0.00 0.00 53 1017.5
20260502043556 11 157 0.0 0.0 0.00 0.00 0.00 53 1017.6
20260502043056 11 157 0.0 0.0 0.00 0.00 0.00 54 1017.4
20260502042556 11 157 0.0 0.0 0.00 0.00 0.00 53 1017.6
20260502042055 11 157 0.0 0.0 0.00 0.00 0.00 53 1017.4
20260502041555 11 180 0.0 0.0 0.00 0.00 0.00 53 1017.4
20260502041055 11 180 0.0 0.0 0.00 0.00 0.00 53 1017.4
20260502040555 11 180 0.0 0.0 0.00 0.00 0.00 53 1017.6
20260502040054 11 180 0.0 0.0 0.00 0.00 0.00 53 1017.7
20260502034554 11 180 0.0 0.0 0.00 0.00 0.00 53 1017.8
20260502033553 11 225 0.0 0.0 0.00 0.00 0.00 53 1017.8
20260502033053 11 180 0.0 0.0 0.00 0.00 0.00 52 1017.7
20260502032052 11 157 0.0 0.0 0.00 0.00 0.00 52 1017.6
20260502031552 11 157 0.0 0.0 0.00 0.00 0.00 51 1017.6
20260502031052 11 135 0.0 0.0 0.00 0.00 0.00 51 1017.7
20260502030551 11 135 0.0 0.0 0.00 0.00 0.00 51 1017.7
20260502030051 11 135 0.0 0.0 0.00 0.00 0.00 51 1017.7
20260502025551 11 135 0.0 0.0 0.00 0.00 0.00 51 1017.8
20260502025050 11 135 0.0 0.0 0.00 0.00 0.00 51 1017.8
20260502024550 11 135 0.0 0.0 0.00 0.00 0.00 50 1017.8
20260502024050 11 135 0.0 0.0 0.00 0.00 0.00 50 1017.8
20260502023550 11 135 0.0 0.0 0.00 0.00 0.00 50 1017.9
20260502023049 11 135 0.0 0.0 0.00 0.00 0.00 50 1017.8
20260502022549 11 135 0.0 0.0 0.00 0.00 0.00 50 1017.8
20260502022049 11 135 0.0 0.0 0.00 0.00 0.00 50 1017.8
20260502021549 11 135 0.0 0.0 0.00 0.00 0.00 50 1017.9
20260502021048 11 135 0.0 0.0 0.00 0.00 0.00 50 1017.9
20260502020548 11 135 0.0 0.0 0.00 0.00 0.00 50 1017.9
20260502020048 11 157 0.0 0.0 0.00 0.00 0.00 50 1017.9
20260502015547 11 157 0.0 0.0 0.00 0.00 0.00 50 1017.9
20260502014547 11 157 0.0 0.0 0.00 0.00 0.00 49 1017.9
20260502013546 11 157 0.0 0.0 0.00 0.00 0.00 49 1017.9
20260502012546 11 135 0.0 0.0 0.00 0.00 0.00 49 1018.1
20260502012045 11 135 0.0 0.0 0.00 0.00 0.00 49 1018.1
20260502011545 11 135 0.0 0.0 0.00 0.00 0.00 49 1018.1
20260502011045 11 135 0.0 0.0 0.00 0.00 0.00 48 1018.1
20260502010545 11 135 0.0 0.0 0.00 0.00 0.00 48 1018.2
20260502005544 11 135 0.0 0.0 0.00 0.00 0.00 48 1018.2
20260502005044 11 135 0.0 0.0 0.00 0.00 0.00 48 1018.2
20260502004543 11 135 0.0 0.0 0.00 0.00 0.00 48 1018.2
20260502004043 11 135 0.0 0.0 0.00 0.00 0.00 48 1018.3
20260502003543 11 135 0.0 0.0 0.00 0.00 0.00 48 1018.4
20260502003043 11 135 0.0 0.0 0.00 0.00 0.00 48 1018.4
20260502002542 11 135 0.0 0.0 0.00 0.00 0.00 48 1018.5
20260502001542 11 135 0.0 0.0 0.00 0.00 0.00 48 1018.5
20260502001041 11 135 0.0 0.0 0.00 0.00 0.00 47 1018.5
20260502000541 11 135 0.0 0.0 0.00 0.00 0.00 47 1018.6
20260502000041 11 157 0.0 0.0 0.00 0.00 0.00 47 1018.7
20260501235541 11 157 0.0 0.0 0.00 0.00 0.00 47 1018.7
20260501235040 11 157 0.0 0.0 0.00 0.00 0.00 47 1018.7
20260501234540 11 157 0.0 0.0 0.00 0.00 0.00 47 1018.8
20260501234040 12 157 0.0 0.0 0.00 0.00 0.00 46 1018.8
20260501233539 12 157 0.0 0.0 0.00 0.00 0.00 46 1018.8
20260501233039 12 157 0.0 0.0 0.00 0.00 0.00 46 1018.8
20260501232539 12 157 0.0 0.0 0.00 0.00 0.00 45 1018.8
20260501232039 12 157 0.0 0.0 0.00 0.00 0.00 45 1018.9
20260501231538 12 135 0.0 0.0 0.00 0.00 0.00 45 1018.9
20260501231038 12 135 0.0 0.0 0.00 0.00 0.00 45 1018.9
20260501230538 12 135 0.0 0.0 0.00 0.00 0.00 44 1019.0
20260501230037 12 135 0.0 0.0 0.00 0.00 0.00 44 1018.9
20260501225537 12 135 0.0 0.0 0.00 0.00 0.00 44 1019.1
20260501224537 12 135 0.0 0.0 0.00 0.00 0.00 44 1019.1
20260501224036 12 135 0.0 0.0 0.00 0.00 0.00 44 1019.2
20260501223536 12 135 0.0 0.0 0.00 0.00 0.00 44 1019.1
20260501223036 13 135 0.0 0.0 0.00 0.00 0.00 44 1019.2
20260501222536 13 157 0.0 0.0 0.00 0.00 0.00 43 1019.3
20260501222035 13 135 0.0 0.0 0.00 0.00 0.00 43 1019.3
20260501221535 13 135 0.0 0.0 0.00 0.00 0.00 42 1019.4
20260501221035 13 135 0.0 0.0 0.00 0.00 0.00 42 1019.3
20260501220534 13 135 0.0 0.0 0.00 0.00 0.00 42 1019.4
20260501215534 13 135 0.0 0.0 0.00 0.00 0.00 42 1019.3
20260501215034 13 135 0.0 0.0 0.00 0.00 0.00 41 1019.3